Current Weather Conditions by Major Hwy


I-84 West to East [Columbia River Gorge] 1100 PM PDT MON APR 22 2019 ELEVA CITY SKY/WX TMP DP RH WIND PRES REMARKS 10 ASTORIA, OR LGT RAIN 48 46 93 SE6 30.23F FOG 20 KELSO CLOUDY 53 52 96 CALM 30.25S FOG 40 PORTLAND, OR CLOUDY 56 52 86 W6 30.23F 30 TROUTDALE, OR CLOUDY 58 51 78 CALM 30.22F 240 THE DALLES, OR CLOUDY 60 45 57 W9 30.18F 620 HERMISTON, OR CLOUDY 61 46 57 SW15 30.14S 1,480 PENDLETON, OR LGT RAIN 58 44 60 W10 30.16S 2,710 LA GRANDE CLOUDY 56 44 64 SW5 30.20S 3,370 BAKER CITY CLOUDY 54 39 57 S3 30.20F 2,190 ONTARIO CLEAR 53 42 66 W7 30.17S
I-90 West to East 1100 PM PDT MON APR 22 2019 ELEVA CITY SKY/WX TMP DP RH WIND PRES REMARKS 30 SEATAC AIRPORT CLOUDY 51 48 89 SW13 30.20S 1,730 ELLENSBURG MOCLDY 51 42 71 NW10 30.14S 1,200 MOSES LAKE CLOUDY 61 43 51 W7 30.09S 1,880 SPOKANE GEIGER CLOUDY 56 42 59 S13 30.09F
I-82 North West to South East 1100 PM PDT MON APR 22 2019 ELEVA CITY SKY/WX TMP DP RH WIND PRES REMARKS 1,730 ELLENSBURG MOCLDY 51 42 71 NW10 30.14S 1,050 YAKIMA TC MOCLDY 55 42 62 E6 30.12S 720 360 PASCO CLOUDY 65 46 50 SW10 30.13R 620 HERMISTON, OR CLOUDY 61 46 57 SW15 30.14S
Hwy97 North to South 1100 PM PDT MON APR 22 2019 ELEVA CITY SKY/WX TMP DP RH WIND PRES REMARKS 850 OMAK CLOUDY 61 40 45 E8 30.03F 630 WENATCHEE MOCLDY 54 40 59 NW12 30.10S 1,730 ELLENSBURG MOCLDY 51 42 71 NW10 30.14S 1,050 YAKIMA TC MOCLDY 55 42 62 E6 30.12S 1,640 GOLDENDALE* CLOUDY 60 45 57 W9 30.18F *From Dallesport Airport Elev 240 3,080 REDMOND CLOUDY 55 45 68 S8 30.22F 4,100 KLAMATH FALLS PTCLDY 53 43 68 NW9 30.27S
I-5 North to South 1100 PM PDT MON APR 22 2019 ELEVA CITY SKY/WX TMP DP RH WIND PRES REMARKS 150 BELLINGHAM CLOUDY 53 46 77 S7 30.16F 100 ARLINGTON CLOUDY 53 48 83 SE10 30.20F 610 EVERETT CLOUDY 51 48 89 S10 30.19F 30 SEATAC AIRPORT CLOUDY 51 48 89 SW13 30.20S 200 OLYMPIA CLOUDY 50 49 96 SW3 30.22F 20 KELSO CLOUDY 53 52 96 CALM 30.25S FOG 100 VANCOUVER CLOUDY 56 52 86 NW3 30.23F 40 PORTLAND CLOUDY 56 52 86 W6 30.23F 200 SALEM CLOUDY 58 45 62 CALM 30.22F 360 EUGENE MOCLDY 56 50 80 NE7 30.25F 510 ROSEBURG PTCLDY 64 49 57 NW5 30.24S 1,300 MEDFORD PTCLDY 68 43 40 NW3 30.24R
Data from:
http://www.wrh.noaa.gov/sew/get.php?pil=RWR&sid=OR&version=0&format=printer
http://www.wrh.noaa.gov/sew/get.php?pil=RWR&sid=WA&version=0&format=printer

Current Observations

Washington State Current Weather Observations   …  Oregon State Current Weather Observation



48 Hour Forecast

Seattle  …  Vancouver  …  Portland
————————————————————————————————————————
Bend  …  Spokane  …  Richland  …  Pendleton  …  Blue Mountains I-84  …  Yakima
————————————————————————————————————————
Goldendale, Washington Higher Elevations  …  Dallesport Airport - Goldendale  …  Bingen - White Salmon - Hood River  …  Index


Top of Page